When you browse on this site, cookies collect data to enhance your experience and personalize the content and advertising you see.
Visit our Privacy Policy to learn more. By continuing to use the site, you agree to this use of cookies and data.
  • In Czech Republic
  • List of Countries
  • For 7 days
  • Water Temperature
  • Satellite Maps
  • Weather Map
  • Weather Widgets
  • user-avatar
    Login

    Hourly Weather Sevan

    Today, 23 March, Saturday

    Time Temperature Precipitation Wind Pressure Humidity
    00:00 0°C° 0 mm 1 mps 640 mmHg 59%
    01:00 0°C° 0 mm 1 mps 640 mmHg 60%
    02:00 0°C° 0 mm 1 mps 640 mmHg 61%
    03:00 -1°C° 0 mm 1 mps 639 mmHg 65%
    04:00 -1°C° 0 mm 1 mps 639 mmHg 66%
    05:00 -1°C° 0 mm 1 mps 639 mmHg 68%
    06:00 -1°C° 0 mm 1 mps 639 mmHg 70%
    07:00 -2°C° 0 mm 2 mps 639 mmHg 67%
    08:00 +1°C° 0 mm 2 mps 639 mmHg 64%
    09:00 +1°C° 0 mm 3 mps 639 mmHg 61%
    10:00 +2°C° 0 mm 3 mps 638 mmHg 60%
    11:00 +3°C° 0 mm 3 mps 638 mmHg 60%
    12:00 +3°C° 0 mm 3 mps 637 mmHg 60%
    13:00 +3°C° 0.1 mm 3 mps 637 mmHg 60%
    14:00 +4°C° 0.1 mm 3 mps 637 mmHg 60%
    15:00 +4°C° 0.1 mm 3 mps 636 mmHg 60%
    16:00 +3°C° 0.1 mm 3 mps 636 mmHg 61%
    17:00 +4°C° 0.1 mm 2 mps 636 mmHg 62%
    18:00 +3°C° 0.1 mm 2 mps 635 mmHg 63%
    19:00 +3°C° 0.1 mm 2 mps 635 mmHg 63%
    20:00 +2°C° 0.1 mm 2 mps 636 mmHg 63%
    21:00 +2°C° 0.1 mm 2 mps 636 mmHg 64%
    22:00 +1°C° 0.1 mm 2 mps 635 mmHg 65%
    23:00 +1°C° 0.1 mm 2 mps 635 mmHg 66%

    Tomorrow, 24 March, Sunday

    Time Temperature Precipitation Wind Pressure Humidity
    00:00 +1°C° 0.1 mm 2 mps 635 mmHg 67%
    01:00 +1°C° 0.3 mm 2 mps 635 mmHg 70%
    02:00 +1°C° 0.3 mm 2 mps 635 mmHg 74%
    03:00 +1°C° 0.3 mm 2 mps 635 mmHg 77%
    04:00 +1°C° 0.4 mm 2 mps 634 mmHg 77%
    05:00 +1°C° 0.4 mm 2 mps 634 mmHg 78%
    06:00 +2°C° 0.4 mm 1 mps 634 mmHg 79%
    07:00 +2°C° 0.3 mm 2 mps 634 mmHg 76%
    08:00 +3°C° 0.3 mm 2 mps 634 mmHg 74%
    09:00 +4°C° 0.3 mm 2 mps 635 mmHg 72%
    10:00 +4°C° 0.6 mm 2 mps 635 mmHg 72%
    11:00 +5°C° 0.6 mm 2 mps 634 mmHg 72%
    12:00 +5°C° 0.6 mm 2 mps 634 mmHg 72%
    13:00 +7°C° 0.3 mm 1 mps 634 mmHg 71%
    14:00 +7°C° 0.3 mm 1 mps 634 mmHg 69%
    15:00 +7°C° 0.3 mm 1 mps 634 mmHg 68%
    16:00 +7°C° 0.6 mm 1 mps 634 mmHg 70%
    17:00 +5°C° 0.6 mm 2 mps 634 mmHg 72%
    18:00 +4°C° 0.6 mm 2 mps 634 mmHg 74%
    19:00 +3°C° 0.6 mm 2 mps 634 mmHg 75%
    20:00 +2°C° 0.6 mm 3 mps 634 mmHg 75%
    21:00 +1°C° 0.6 mm 3 mps 635 mmHg 76%
    22:00 0°C° 0.2 mm 3 mps 634 mmHg 76%
    23:00 0°C° 0.2 mm 3 mps 634 mmHg 76%

    Day after tomorrow, 25 March, Monday

    Time Temperature Precipitation Wind Pressure Humidity
    00:00 -1°C° 0.2 mm 3 mps 634 mmHg 76%
    01:00 -1°C° 0 mm 3 mps 634 mmHg 75%
    02:00 -1°C° 0 mm 3 mps 634 mmHg 75%
    03:00 -1°C° 0 mm 3 mps 634 mmHg 75%
    04:00 -1°C° 0 mm 3 mps 634 mmHg 75%
    05:00 -1°C° 0 mm 3 mps 634 mmHg 75%
    06:00 -2°C° 0 mm 4 mps 634 mmHg 75%
    07:00 -1°C° 0 mm 4 mps 634 mmHg 73%
    08:00 0°C° 0 mm 4 mps 634 mmHg 71%
    09:00 +1°C° 0 mm 4 mps 634 mmHg 70%
    10:00 +3°C° 0.1 mm 4 mps 633 mmHg 69%
    11:00 +4°C° 0.1 mm 4 mps 633 mmHg 68%
    12:00 +5°C° 0.1 mm 4 mps 633 mmHg 68%
    13:00 +5°C° 0.1 mm 4 mps 633 mmHg 67%
    14:00 +5°C° 0.1 mm 3 mps 633 mmHg 67%
    15:00 +5°C° 0.1 mm 3 mps 633 mmHg 66%
    16:00 +5°C° 0.2 mm 3 mps 633 mmHg 67%
    17:00 +4°C° 0.2 mm 3 mps 633 mmHg 69%
    18:00 +3°C° 0.2 mm 3 mps 634 mmHg 70%
    19:00 +3°C° 0.2 mm 3 mps 634 mmHg 71%
    20:00 +3°C° 0.2 mm 2 mps 634 mmHg 72%
    21:00 +3°C° 0.2 mm 2 mps 635 mmHg 73%
    22:00 +3°C° 0.2 mm 2 mps 635 mmHg 74%
    23:00 +2°C° 0.2 mm 2 mps 635 mmHg 75%

    26 March, Tuesday

    Time Temperature Precipitation Wind Pressure Humidity
    00:00 +2°C° 0.2 mm 2 mps 635 mmHg 75%
    01:00 +2°C° 0.2 mm 2 mps 635 mmHg 76%
    02:00 +2°C° 0.2 mm 2 mps 635 mmHg 76%
    03:00 +3°C° 0.2 mm 1 mps 635 mmHg 77%
    04:00 +3°C° 0.2 mm 1 mps 636 mmHg 77%
    05:00 +3°C° 0.2 mm 1 mps 636 mmHg 77%
    06:00 +2°C° 0.2 mm 1 mps 636 mmHg 78%
    07:00 +3°C° 0.3 mm 1 mps 636 mmHg 76%
    08:00 +4°C° 0.3 mm 1 mps 637 mmHg 74%
    09:00 +5°C° 0.3 mm 1 mps 637 mmHg 72%
    10:00 +6°C° 0.2 mm 1 mps 637 mmHg 70%
    11:00 +6°C° 0.2 mm 1 mps 637 mmHg 68%
    12:00 +7°C° 0.2 mm 1 mps 637 mmHg 67%
    13:00 +8°C° 0.1 mm 1 mps 636 mmHg 66%
    14:00 +8°C° 0.1 mm 1 mps 636 mmHg 65%
    15:00 +8°C° 0.1 mm 1 mps 636 mmHg 64%
    16:00 +8°C° 0.1 mm 1 mps 636 mmHg 65%
    17:00 +7°C° 0.1 mm 1 mps 636 mmHg 67%
    18:00 +6°C° 0.1 mm 1 mps 636 mmHg 68%
    19:00 +5°C° 0.1 mm 2 mps 636 mmHg 71%
    20:00 +4°C° 0.1 mm 2 mps 637 mmHg 73%
    21:00 +3°C° 0.1 mm 2 mps 637 mmHg 75%
    22:00 +3°C° 0 mm 2 mps 637 mmHg 75%
    23:00 +3°C° 0 mm 2 mps 636 mmHg 76%

    27 March, Wednesday

    Time Temperature Precipitation Wind Pressure Humidity
    00:00 +3°C° 0 mm 2 mps 636 mmHg 76%
    01:00 +3°C° 0 mm 1 mps 636 mmHg 76%
    02:00 +3°C° 0 mm 1 mps 636 mmHg 76%
    03:00 +1°C° 0 mm 0 mps 636 mmHg 76%
    04:00 +2°C° 0.1 mm 1 mps 636 mmHg 76%
    05:00 +2°C° 0.1 mm 1 mps 636 mmHg 75%
    06:00 +2°C° 0.1 mm 1 mps 636 mmHg 75%
    07:00 +3°C° 0.1 mm 1 mps 636 mmHg 72%
    08:00 +4°C° 0.1 mm 1 mps 637 mmHg 70%
    09:00 +4°C° 0.1 mm 2 mps 637 mmHg 68%
    10:00 +5°C° 0.2 mm 2 mps 637 mmHg 67%
    11:00 +6°C° 0.2 mm 2 mps 637 mmHg 66%
    12:00 +7°C° 0.2 mm 2 mps 636 mmHg 65%
    13:00 +7°C° 0.1 mm 2 mps 636 mmHg 64%
    14:00 +7°C° 0.1 mm 2 mps 636 mmHg 62%
    15:00 +8°C° 0.1 mm 2 mps 636 mmHg 61%
    16:00 +7°C° 0.1 mm 2 mps 637 mmHg 63%
    17:00 +6°C° 0.1 mm 2 mps 637 mmHg 64%
    18:00 +7°C° 0.1 mm 1 mps 637 mmHg 66%
    19:00 +6°C° 0.1 mm 1 mps 637 mmHg 67%
    20:00 +6°C° 0.1 mm 1 mps 638 mmHg 69%
    21:00 +5°C° 0.1 mm 1 mps 638 mmHg 70%
    22:00 +5°C° 0.1 mm 1 mps 638 mmHg 70%
    23:00 +4°C° 0.1 mm 1 mps 638 mmHg 71%

    28 March, Thursday

    Time Temperature Precipitation Wind Pressure Humidity
    00:00 +4°C° 0.1 mm 1 mps 638 mmHg 71%
    01:00 +4°C° 0.1 mm 1 mps 638 mmHg 72%
    02:00 +4°C° 0.1 mm 1 mps 638 mmHg 73%
    03:00 +4°C° 0.1 mm 1 mps 638 mmHg 73%
    04:00 +3°C° 0.2 mm 1 mps 638 mmHg 74%
    05:00 +2°C° 0.2 mm 0 mps 638 mmHg 75%
    06:00 +2°C° 0.2 mm 0 mps 639 mmHg 76%
    07:00 +4°C° 0.4 mm 1 mps 639 mmHg 74%
    08:00 +4°C° 0.4 mm 1 mps 639 mmHg 72%
    09:00 +5°C° 0.4 mm 1 mps 639 mmHg 70%
    10:00 +5°C° 0.4 mm 1 mps 639 mmHg 69%
    11:00 +5°C° 0.4 mm 2 mps 639 mmHg 68%
    12:00 +5°C° 0.4 mm 2 mps 639 mmHg 67%
    13:00 +6°C° 0.5 mm 2 mps 638 mmHg 67%
    14:00 +6°C° 0.5 mm 2 mps 638 mmHg 67%
    15:00 +6°C° 0.5 mm 2 mps 638 mmHg 67%
    16:00 +5°C° 0.7 mm 2 mps 638 mmHg 69%
    17:00 +4°C° 0.7 mm 2 mps 639 mmHg 71%
    18:00 +4°C° 0.7 mm 2 mps 639 mmHg 73%
    19:00 +4°C° 0.3 mm 1 mps 639 mmHg 74%
    20:00 +4°C° 0.3 mm 1 mps 640 mmHg 75%
    21:00 +3°C° 0.3 mm 1 mps 640 mmHg 76%
    22:00 +3°C° 0.1 mm 1 mps 640 mmHg 76%
    23:00 +2°C° 0.1 mm 1 mps 640 mmHg 76%
    Show more